Wind_Speed
41 40 38 40 42 49 54 52 41 44 43 44 41 40 41 40 34 28 28 26 22 19 14 12 13 12 10 8 6 7 8 8 8 8 7 6 7 9 10 10 10 10 11
50 48 45 44 44 47 45 49 49 51 45 47 42 39 41 44 40 33 31 30 27 23 18 14 14 15 13 11 8 7 8 8 8 8 8 7 7 8 8 8 9 9 9
54 56 55 53 51 50 52 46 46 52 49 48 48 40 40 45 45 39 35 33 30 27 23 18 15 17 16 14 11 9 8 8 9 9 8 8 7 8 8 8 9 8 8
56 56 58 59 59 57 58 55 51 48 54 54 46 44 48 45 47 45 41 36 33 32 28 23 18 19 19 18 15 12 10 8 9 10 9 8 7 7 8 9 9 9 8
60 60 58 59 63 62 61 60 59 56 54 54 59 56 46 52 44 49 48 42 38 35 32 28 24 20 22 22 19 17 13 10 8 9 9 9 8 7 7 8 9 10 10
63 62 62 61 60 63 64 65 62 60 59 58 57 61 67 56 48 56 53 48 44 39 36 33 29 25 23 24 23 21 18 14 11 9 9 9 9 8 7 7 8 8 9
66 65 65 65 65 65 67 68 68 66 63 64 64 63 63 71 52 54 55 52 49 44 39 38 34 29 25 26 26 24 22 19 16 13 10 9 9 9 7 6 6 7 9
69 71 71 71 71 70 70 70 71 70 68 68 70 68 67 70 65 55 54 54 52 48 43 41 39 35 30 27 27 27 26 23 20 17 14 11 9 9 9 7 5 6 8
72 75 77 77 76 77 77 77 77 77 74 74 72 78 73 74 66 55 58 55 53 51 48 44 42 39 35 30 29 29 28 26 24 21 18 15 12 10 10 9 7 5 5
77 81 83 85 84 83 82 83 82 84 82 80 77 77 77 75 69 71 62 58 54 55 53 48 45 43 40 35 31 30 29 29 27 25 22 19 16 13 11 10 9 7 5
83 86 90 93 93 93 92 90 91 91 89 86 87 76 81 80 81 74 66 57 62 59 58 53 48 48 44 39 35 32 31 30 29 28 26 23 21 17 15 13 12 10 8
79 82 86 91 93 95 96 95 94 94 92 90 91 86 84 89 79 72 71 55 63 63 64 59 52 51 47 43 39 35 32 32 31 30 28 26 25 22 19 16 14 13 12
83 88 92 95 98 100 103 103 98 98 96 94 94 95 91 86 86 77 69 73 60 66 67 63 56 54 50 46 44 39 35 33 32 31 30 28 27 25 22 19 17 16 15
87 92 97 102 105 107 110 111 109 106 105 102 101 95 96 92 90 82 76 73 65 69 69 65 61 57 54 49 45 43 38 35 34 34 32 30 28 26 24 22 20 18 17
91 97 96 95 96 99 106 114 118 114 114 109 103 99 101 96 93 85 81 74 68 70 67 67 62 58 53 54 50 47 44 39 36 35 34 32 30 28 26 24 22 21 19
86 83 83 84 86 89 92 97 104 110 113 113 107 106 107 102 89 88 82 78 75 72 70 70 65 61 56 56 55 53 49 44 40 37 35 34 32 30 29 27 24 22 20
76 73 73 75 77 79 83 88 92 95 102 104 103 105 112 106 100 93 83 83 74 76 74 75 70 68 64 61 59 57 52 48 43 39 37 35 34 32 30 28 26 24 23
62 60 59 64 66 72 76 78 82 88 95 101 103 111 82 82 98 89 85 83 77 70 79 77 73 69 65 61 59 59 55 52 47 43 40 37 35 33 30 30 28 26 25
46 47 47 48 53 56 62 67 72 79 89 97 103 106 110 107 97 96 83 88 84 68 81 79 74 71 69 65 62 60 58 55 51 48 44 41 37 35 33 31 28 26 25
46 46 39 39 43 45 51 59 66 73 84 92 103 94 84 90 89 81 83 85 81 65 76 78 76 74 72 68 64 61 61 57 52 51 47 44 42 39 36 33 30 29 27
37 35 36 33 31 34 40 51 59 71 84 98 94 91 85 85 91 76 76 72 71 66 78 79 79 77 75 72 67 63 60 57 56 55 52 49 46 44 40 36 32 32 30
34 27 32 31 25 27 37 47 57 70 82 99 98 90 91 93 91 81 71 70 70 71 73 88 82 78 74 72 69 65 63 59 57 56 54 52 51 48 45 40 38 37 35
26 22 19 20 19 27 38 51 62 73 86 82 99 82 74 78 78 77 70 71 75 72 61 82 85 81 76 73 71 67 64 61 58 59 58 58 56 53 49 45 43 42 41
25 27 14 24 14 25 44 57 65 81 59 57 72 82 81 76 71 70 70 76 70 70 60 77 87 83 79 75 73 67 65 64 64 64 64 60 58 55 54 51 49 48 46
32 22 20 17 16 34 53 74 60 56 48 52 68 71 69 73 75 76 85 79 60 45 49 48 81 87 83 80 77 76 74 70 68 65 63 61 59 58 57 55 53 51 50
23 31 14 8 31 67 47 38 32 53 38 43 49 72 78 71 72 70 65 73 79 61 68 54 54 86 86 82 81 78 75 72 70 68 65 62 62 61 59 55 55 55 54
Wind_Direction
256 254 256 259 262 269 275 271 255 242 241 238 230 228 230 230 228 224 226 222 222 220 215 217 214 212 198 183 158 135 114 96 94 96 90 90 87 89 85 84 79 72 67
256 258 257 257 260 264 264 270 276 271 238 242 239 234 230 231 228 222 226 226 224 222 218 219 219 214 211 198 185 161 139 122 106 106 100 93 92 91 90 87 85 80 72
252 254 257 258 259 260 263 259 265 273 266 239 242 238 235 232 229 225 226 228 224 224 223 218 219 218 215 212 201 186 163 149 129 119 113 102 88 89 96 95 89 85 77
256 252 253 257 258 260 262 262 258 260 267 267 235 235 237 235 230 223 226 227 225 224 225 220 219 221 217 214 209 205 187 170 153 139 128 117 100 88 91 100 98 93 89
258 257 254 251 255 256 258 261 261 258 256 263 271 236 235 234 232 225 223 225 226 225 224 223 219 220 220 218 211 211 205 187 175 159 145 137 121 102 90 94 100 101 96
259 258 257 256 252 253 254 256 256 258 256 256 258 268 230 231 228 227 220 220 226 223 224 224 221 220 222 219 215 216 210 203 193 181 166 156 144 127 108 92 95 107 106
259 259 260 261 263 258 257 256 256 254 252 254 252 254 259 239 236 225 219 220 220 223 223 222 223 222 222 221 218 217 217 215 206 199 184 172 164 148 132 116 96 93 112
257 256 255 256 259 260 258 257 259 257 252 250 253 251 252 254 229 222 224 220 220 222 221 222 221 222 222 224 220 217 219 216 216 209 203 191 178 171 154 136 120 100 105
263 260 259 258 256 256 255 256 255 256 255 252 248 252 248 256 249 228 225 224 217 222 221 221 221 221 222 222 223 220 219 221 220 217 214 209 198 184 178 163 144 136 117
265 263 261 261 260 257 254 255 254 252 254 253 248 247 249 249 253 242 225 225 223 221 222 220 219 221 220 221 222 221 219 222 222 221 220 219 214 203 196 187 176 162 156
267 264 263 262 261 260 258 254 252 250 249 249 249 244 246 246 244 240 235 230 220 219 221 218 217 220 220 220 221 221 219 220 222 223 221 223 223 218 211 206 201 190 180
269 267 265 264 262 260 258 254 251 249 247 245 246 244 244 247 244 248 250 226 220 216 218 217 217 218 219 219 220 221 219 220 221 223 223 223 225 224 222 219 215 212 205
274 272 270 266 263 259 256 252 248 247 245 242 241 244 242 240 244 240 243 241 226 217 218 217 215 216 217 218 219 220 218 218 221 222 224 222 225 226 226 227 226 222 221
283 281 279 274 268 262 257 252 247 244 242 240 239 237 239 238 240 237 239 242 234 214 217 217 216 216 215 217 219 221 218 218 221 222 223 223 225 225 227 229 230 229 227
290 284 277 270 264 259 253 248 243 240 240 238 237 233 234 234 231 235 234 242 234 213 216 218 217 218 216 219 217 219 218 218 221 224 223 223 225 225 226 228 230 232 234
287 279 273 267 261 256 250 245 241 236 233 231 225 226 227 229 230 232 230 236 224 213 214 217 216 216 215 220 220 218 216 216 219 223 225 223 224 226 227 228 230 233 235
289 284 278 271 265 257 250 242 237 230 226 222 220 220 221 224 227 228 225 231 229 215 209 217 215 216 215 216 219 220 219 218 219 222 223 226 225 227 228 230 232 234 236
289 280 275 269 263 255 249 242 232 225 219 214 208 201 200 210 222 224 222 228 225 216 207 214 214 217 217 219 220 222 221 221 219 221 223 226 227 229 230 231 233 235 237
298 300 289 277 269 256 245 237 226 218 213 207 204 201 208 213 217 220 221 227 231 222 207 213 213 216 217 216 219 221 222 223 221 222 223 224 227 228 230 232 232 235 237
315 310 304 289 273 257 240 230 218 210 204 198 190 196 198 207 214 216 218 228 229 225 211 213 212 215 218 217 219 221 222 222 223 225 223 223 225 227 230 232 234 235 236
332 332 324 305 277 254 232 219 210 201 194 185 179 180 179 182 206 210 212 219 228 235 211 213 214 216 218 219 218 221 223 223 223 226 224 223 224 227 229 229 232 236 235
329 320 330 315 284 245 218 200 193 189 186 188 187 188 194 197 201 210 214 220 229 239 216 217 213 214 218 220 219 220 223 223 225 229 227 226 226 226 228 229 229 233 234
348 330 342 335 284 225 200 183 178 174 172 178 183 185 181 195 206 211 212 214 224 224 217 219 213 214 217 220 221 220 223 225 224 228 228 227 227 226 228 228 231 233 236
348 355 353 360 295 211 190 170 169 161 163 179 192 192 200 200 210 201 213 217 226 217 218 216 215 214 216 219 221 221 223 225 225 226 229 228 229 230 230 231 231 235 237
10 353 344 316 212 180 161 146 149 170 162 172 182 186 198 201 208 205 209 217 208 217 228 230 223 214 217 218 219 219 220 222 226 228 230 230 232 232 233 232 234 236 239
26 11 18 292 182 160 139 148 129 167 169 188 191 196 199 208 207 211 212 219 224 228 235 229 230 218 216 219 220 222 222 223 226 228 230 232 233 235 235 235 237 240 241
Height
5786 5788 5791 5792 5792 5795 5797 5801 5808 5813 5818 5820 5822 5826 5831 5836 5839 5845 5846 5849 5852 5852 5854 5857 5857 5860 5861 5861 5861 5860 5859 5858 5857 5856 5855 5854 5853 5851 5851 5850 5850 5849 5848
5776 5779 5783 5786 5787 5786 5792 5795 5800 5803 5810 5813 5817 5822 5823 5829 5834 5839 5841 5844 5848 5850 5852 5853 5856 5857 5859 5861 5861 5861 5860 5859 5858 5857 5856 5856 5855 5853 5852 5852 5851 5850 5850
5766 5769 5772 5776 5779 5780 5781 5788 5792 5795 5798 5806 5809 5815 5816 5820 5826 5833 5836 5839 5844 5847 5849 5850 5853 5855 5857 5859 5860 5861 5860 5860 5858 5858 5857 5857 5856 5854 5853 5852 5852 5851 5851
5753 5758 5762 5764 5767 5771 5772 5776 5783 5787 5791 5794 5799 5802 5808 5812 5816 5824 5829 5833 5837 5842 5845 5847 5848 5852 5854 5856 5859 5860 5860 5860 5860 5859 5858 5857 5857 5857 5855 5854 5853 5852 5852
5739 5743 5749 5753 5755 5758 5762 5764 5769 5776 5782 5785 5788 5792 5794 5803 5806 5813 5820 5825 5830 5836 5840 5843 5845 5847 5850 5853 5855 5857 5859 5860 5861 5860 5859 5859 5858 5858 5857 5856 5854 5854 5854
5726 5729 5733 5738 5743 5746 5749 5752 5757 5762 5769 5776 5779 5780 5784 5789 5794 5799 5808 5815 5822 5828 5834 5838 5841 5842 5846 5849 5851 5855 5857 5858 5858 5860 5859 5859 5858 5859 5858 5857 5856 5855 5855
5711 5715 5718 5722 5727 5733 5735 5739 5742 5748 5756 5762 5765 5768 5772 5775 5782 5788 5796 5804 5812 5819 5827 5832 5836 5838 5840 5844 5846 5850 5854 5856 5856 5858 5858 5859 5859 5859 5859 5859 5858 5856 5856
5695 5698 5703 5707 5711 5715 5721 5723 5727 5732 5740 5746 5749 5755 5759 5761 5772 5782 5786 5795 5803 5810 5817 5824 5829 5832 5836 5839 5842 5845 5849 5851 5854 5855 5857 5857 5858 5859 5859 5859 5859 5858 5857
5676 5678 5682 5686 5692 5698 5703 5706 5710 5714 5721 5726 5736 5735 5746 5752 5765 5773 5779 5789 5792 5800 5807 5814 5822 5825 5830 5833 5837 5840 5843 5848 5850 5852 5854 5856 5856 5857 5858 5859 5859 5859 5859
5655 5657 5660 5662 5667 5674 5682 5686 5689 5695 5701 5709 5718 5725 5731 5739 5746 5756 5767 5776 5784 5790 5798 5806 5813 5818 5822 5827 5831 5834 5837 5842 5846 5848 5850 5853 5854 5855 5856 5857 5858 5859 5859
5633 5633 5633 5636 5641 5646 5654 5662 5665 5672 5680 5688 5693 5710 5713 5721 5732 5743 5753 5762 5768 5780 5787 5794 5802 5808 5814 5820 5824 5828 5831 5835 5840 5844 5845 5848 5851 5852 5853 5855 5857 5858 5859
5609 5607 5607 5608 5612 5616 5621 5629 5638 5645 5656 5667 5675 5686 5697 5703 5721 5731 5742 5749 5758 5769 5773 5780 5790 5798 5805 5811 5817 5821 5824 5828 5833 5838 5841 5843 5846 5848 5850 5852 5854 5856 5857
5580 5576 5575 5577 5579 5582 5586 5594 5605 5616 5627 5642 5655 5663 5681 5688 5700 5715 5725 5731 5742 5756 5764 5771 5778 5788 5795 5802 5807 5813 5817 5821 5827 5831 5836 5838 5841 5844 5846 5848 5850 5852 5854
5549 5540 5535 5533 5535 5540 5543 5550 5564 5582 5595 5612 5630 5647 5658 5671 5682 5700 5712 5720 5730 5741 5752 5760 5768 5777 5784 5794 5800 5805 5810 5814 5819 5824 5828 5832 5836 5839 5842 5844 5846 5848 5850
5511 5501 5489 5484 5483 5486 5491 5499 5518 5542 5556 5580 5600 5622 5634 5651 5664 5681 5695 5707 5717 5728 5742 5750 5760 5769 5777 5785 5791 5796 5802 5806 5812 5818 5822 5825 5829 5833 5836 5838 5841 5843 5846
5470 5459 5451 5444 5442 5444 5449 5454 5471 5496 5517 5545 5574 5590 5609 5631 5647 5662 5678 5694 5702 5715 5728 5737 5747 5756 5765 5774 5780 5785 5791 5796 5802 5810 5816 5818 5822 5826 5829 5832 5835 5837 5840
5434 5423 5415 5409 5406 5405 5409 5418 5435 5457 5479 5507 5539 5564 5588 5611 5626 5644 5663 5679 5685 5699 5714 5723 5731 5740 5748 5759 5767 5777 5783 5790 5795 5802 5807 5812 5815 5819 5822 5826 5829 5832 5835
5410 5399 5390 5382 5378 5375 5378 5386 5404 5423 5448 5477 5510 5544 5568 5588 5608 5627 5646 5663 5674 5686 5698 5709 5719 5729 5742 5752 5761 5769 5775 5781 5787 5793 5799 5806 5809 5813 5817 5820 5823 5826 5828
5392 5381 5370 5360 5354 5352 5355 5363 5378 5398 5423 5453 5487 5519 5548 5567 5592 5611 5630 5649 5660 5673 5683 5695 5706 5716 5728 5738 5747 5757 5765 5772 5778 5784 5790 5797 5801 5805 5810 5813 5817 5820 5822
5379 5367 5356 5347 5340 5336 5339 5347 5361 5383 5405 5437 5471 5505 5533 5556 5577 5601 5619 5635 5650 5661 5672 5682 5691 5703 5716 5727 5736 5746 5753 5762 5771 5777 5781 5788 5792 5797 5801 5806 5811 5813 5816
5372 5359 5348 5340 5333 5330 5331 5339 5353 5374 5400 5433 5464 5495 5519 5542 5567 5588 5605 5621 5635 5648 5658 5669 5679 5690 5702 5712 5724 5734 5744 5752 5759 5766 5771 5777 5783 5788 5793 5798 5803 5806 5809
5370 5360 5348 5338 5332 5330 5331 5338 5351 5372 5399 5431 5457 5488 5513 5534 5558 5578 5594 5610 5625 5634 5644 5655 5667 5679 5692 5703 5712 5723 5731 5739 5748 5758 5763 5768 5773 5778 5783 5790 5793 5796 5799
5370 5359 5350 5342 5336 5334 5337 5346 5361 5383 5410 5439 5464 5486 5504 5528 5554 5570 5585 5599 5612 5620 5632 5644 5656 5668 5678 5691 5701 5710 5720 5728 5737 5744 5750 5753 5759 5766 5772 5778 5783 5786 5789
5372 5361 5353 5347 5342 5343 5347 5360 5379 5404 5428 5454 5470 5488 5510 5526 5539 5557 5572 5587 5600 5609 5618 5630 5641 5652 5664 5674 5688 5699 5708 5715 5719 5726 5732 5742 5748 5757 5762 5767 5771 5775 5779
5378 5369 5361 5357 5352 5354 5366 5382 5402 5421 5438 5459 5473 5491 5507 5526 5536 5551 5562 5574 5586 5596 5606 5615 5627 5635 5648 5659 5670 5677 5687 5697 5705 5716 5724 5733 5739 5744 5750 5756 5761 5764 5768
5384 5379 5372 5368 5365 5370 5382 5397 5410 5430 5437 5452 5468 5479 5500 5514 5527 5538 5550 5558 5574 5586 5596 5605 5614 5622 5631 5645 5655 5666 5676 5685 5694 5701 5713 5720 5726 5731 5736 5746 5750 5753 5758